This demonstration page uses our WeatherBlox Daily Observations layout. Learn more.

Left ArrowRight Arrow

Hourly Observations for February 22, 2019

Temp ( °F °C ) Dew Point ( °F °C ) Humidity (%) Winds ( mph kmh ) Pressure ( in mb ) Visibility ( mi km ) Precip ( " mm )
12:53 am 00:53 Clear 37 2.8 30 -1.1 76 76 N N/A 30.32 1027 10 16.0934 N/A
1:53 am 01:53 Clear 35 1.7 31 -0.6 85 85 N 3 6 30.33 1027 9 14.48406 N/A
2:53 am 02:53 Clear 36 2.2 29 -1.7 76 76 N N/A 30.32 1027 9 14.48406 N/A
3:53 am 03:53 Clear 35 1.7 29 -1.7 78 78 N 5 7 30.33 1027 9 14.48406 N/A
4:53 am 04:53 Clear 35 1.7 29 -1.7 78 78 NNE 5 7 30.34 1027 8 12.87472 N/A
5:53 am 05:53 Clear 34 1.1 28 -2.2 79 79 N 5 7 30.37 1029 8 12.87472 N/A
6:53 am 06:53 Clear 33 0.6 28 -2.2 82 82 NE 6 9 30.39 1029 8 12.87472 N/A
7:53 am 07:53 Hazy 33 0.6 28 -2.2 82 82 NE 5 7 30.4 1030 5 8.0467 N/A
8:53 am 08:53 Hazy 34 1.1 28 -2.2 79 79 ENE 6 9 30.44 1031 6 9.65604 N/A
9:53 am 09:53 Hazy 36 2.2 29 -1.7 76 76 E 7 11 30.44 1031 6 9.65604 N/A
10:53 am 10:53 Hazy 38 3.3 30 -1.1 73 73 ENE 8 13 30.44 1031 6 9.65604 N/A
11:53 am 11:53 Sunny 39 3.9 29 -1.7 67 67 ENE 8 13 30.44 1031 7 11.26538 N/A
12:53 pm 12:53 Sunny 40 4.4 30 -1.1 68 68 E 7 11 30.41 1030 7 11.26538 N/A
1:53 pm 13:53 Sunny 42 5.6 31 -0.6 65 65 ENE 9 15 30.37 1029 7 11.26538 N/A
2:53 pm 14:53 Sunny 42 5.6 31 -0.6 65 65 ENE 8 13 30.36 1028 8 12.87472 N/A
3:53 pm 15:53 Sunny 42 5.6 31 -0.6 65 65 E 8 13 30.37 1028 9 14.48406 N/A
4:53 pm 16:53 Sunny 42 5.6 31 -0.6 65 65 ENE 6 9 30.36 1028 10 16.0934 N/A
5:53 pm 17:53 Sunny 41 5 31 -0.6 67 67 ENE 7 11 30.36 1028 9 14.48406 N/A
6:53 pm 18:53 Clear 40 4.4 31 -0.6 70 70 NE 6 9 30.37 1029 10 16.0934 N/A
7:53 pm 19:53 Cloudy 40 4.4 31 -0.6 70 70 ENE 8 13 30.37 1028 9 14.48406 N/A
8:53 pm 20:53 Cloudy 39 3.9 31 -0.6 73 73 E 7 11 30.34 1028 9 14.48406 N/A
9:53 pm 21:53 Mostly Cloudy 38 3.3 30 -1.1 73 73 E 6 9 30.34 1027 9 14.48406 N/A
10:53 pm 22:53 Cloudy 38 3.3 30 -1.1 73 73 E 7 11 30.33 1027 8 12.87472 N/A
11:53 pm 23:53 Mostly Clear 37 2.8 30 -1.1 76 76 E 6 9 30.29 1026 8 12.87472 N/A

Powered by AerisWeather